Stations météo

réclame
Mon MeteoGroup
Terschelling/Hoorn, Pays-Bas (6251): Température de l'air & dewpoint: 11.12.2018 06:00:00 - 17.12.2018 06:00:00 (CET)Terschelling/Hoorn, Pays-Bas (6251): Température de l'air 5cm: 11.12.2018 06:00:00 - 17.12.2018 06:00:00 (CET)Terschelling/Hoorn, Pays-Bas (6251): Vitesse du vent & gusts: 11.12.2018 06:00:00 - 17.12.2018 06:00:00 (CET)Terschelling/Hoorn, Pays-Bas (6251): Direction du vent: 11.12.2018 06:00:00 - 17.12.2018 06:00:00 (CET)Terschelling/Hoorn, Pays-Bas (6251): reduced air pressure: 11.12.2018 06:00:00 - 17.12.2018 06:00:00 (CET)Terschelling/Hoorn, Pays-Bas (6251): visibility: 11.12.2018 06:00:00 - 17.12.2018 06:00:00 (CET)Terschelling/Hoorn, Pays-Bas (6251): Quantités de précipitations: 11.12.2018 06:00:00 - 17.12.2018 06:00:00 (CET)
Date & Time tt [°C] td [°C] tt 5cm [°C] ff [km/h] ff [knt] fx [km/h] fx [knt] dd ppp [hPa] vv [km] rr [mm]
17.12.2018 06:00:00 1,9 1,9 2,0 25 14 32 18 SE 1012,5 0,8 0,0
17.12.2018 05:00:00 2,0 2,0 2,0 25 14 32 18 SSE 1012,6 2,6 0,0
17.12.2018 04:00:00 2,1 2,1 2,1 22 12 29 16 SSE 1012,6 1,7 0,0
17.12.2018 03:00:00 2,4 2,4 2,5 22 12 32 18 S 1012,5 1,1 0,0
17.12.2018 02:00:00 2,7 2,7 2,7 22 12 25 14 SSE 1012,1 0,7 0,0
17.12.2018 01:00:00 2,8 2,8 2,7 22 12 25 14 S 1012,1 1,4 0,0
17.12.2018 00:00:00 2,3 2,3 2,3 22 12 29 16 SSE 1011,8 1,2 0,0
16.12.2018 23:00:00 2,3 2,3 2,3 22 12 29 16 SSE 1011,5 1,3 0,0
16.12.2018 22:00:00 2,4 2,4 2,2 22 12 29 16 S 1011,2 1,1 0,0
16.12.2018 21:00:00 2,5 2,5 2,4 25 14 32 18 S 1010,9 0,6 0,0
16.12.2018 20:00:00 2,5 2,5 2,5 22 12 36 19 S 1010,6 0,7 0,0
16.12.2018 19:00:00 2,5 2,5 2,5 18 10 40 21 S 1010,4 0,4 0,0
16.12.2018 18:00:00 2,1 2,1 1,8 25 14 29 16 S 1009,5 0,4 0,0
16.12.2018 17:00:00 1,7 1,7 1,5 22 12 36 19 S 1009,1 0,3 0,0
16.12.2018 16:00:00 1,3 1,3 1,1 25 14 32 18 S 1009,0 0,3 0,0
16.12.2018 15:00:00 0,7 0,7 0,7 14 8 25 14 S 1009,1 0,3 0,0
16.12.2018 14:00:00 0,4 0,4 0,4 22 12 29 16 SSE 1008,5 0,3 0,0
16.12.2018 13:00:00 0,1 0,1 0,1 25 14 32 18 SSE 1008,6 0,4 0,0
16.12.2018 12:00:00 -0,4 -0,4 -0,3 29 16 40 21 SSE 1008,8 0,7 0,0
16.12.2018 11:00:00 -0,7 -0,7 -0,6 29 16 40 21 SSE 1009,2 1,0 0,0
16.12.2018 10:00:00 -0,9 -1,0 -0,9 29 16 40 21 SSE 1009,0 2,1 0,0
16.12.2018 09:00:00 -1,1 -1,3 -1,0 29 16 40 21 SE 1008,9 4,2 0,0
16.12.2018 08:00:00 -1,1 -1,4 -1,1 32 18 43 23 SSE 1008,4 6 0,0
16.12.2018 07:00:00 -1,2 -1,6 -1,3 32 18 47 25 SSE 1008,7 8 0,0
16.12.2018 06:00:00 -1,3 -1,8 -1,6 36 19 50 27 SSE 1008,7 9 0,1
16.12.2018 05:00:00 -1,7 -2,0 -1,7 40 21 54 29 SSE 1009,0 4,5 0,2
16.12.2018 04:00:00 -1,7 -2,1 -1,8 43 23 54 29 SE 1009,5 3,5 0,9
16.12.2018 03:00:00 -1,6 -2,5 -1,5 43 23 58 31 SSE 1010,4 2,1 0,0
16.12.2018 02:00:00 -0,6 -4,0 -0,6 43 23 58 31 SE 1010,9 15 0,0
16.12.2018 01:00:00 -0,7 -4,0 -0,8 43 23 61 33 SE 1011,7 15 0,0
16.12.2018 00:00:00 -0,7 -3,7 -0,9 43 23 61 33 SE 1012,5 14 0,0
15.12.2018 23:00:00 -0,9 -3,9 -1,2 47 25 58 31 SE 1012,7 14 0,0
15.12.2018 22:00:00 -1,0 -3,9 -1,2 40 21 54 29 SE 1014,2 15 0,0
15.12.2018 21:00:00 -0,8 -3,9 -1,1 40 21 54 29 SE 1015,3 15 0,0
15.12.2018 20:00:00 -0,3 -3,9 -0,7 43 23 65 35 SE 1016,7 15 0,0
15.12.2018 19:00:00 0,2 -3,9 0,1 47 25 61 33 SSE 1018,1 14 0,0
15.12.2018 18:00:00 0,4 -3,3 0,3 36 19 54 29 SE 1019,2 15 0,0
15.12.2018 17:00:00 0,4 -3,3 0,4 36 19 54 29 SE 1020,1 17 0,0
15.12.2018 16:00:00 0,6 -3,4 0,5 36 19 50 27 SSE 1020,9 20 0,0
15.12.2018 15:00:00 0,5 -3,7 0,3 36 19 47 25 SSE 1022,2 19 0,0
15.12.2018 14:00:00 0,9 -2,9 0,8 32 18 40 21 SSE 1022,8 16 0,0
15.12.2018 13:00:00 0,8 -2,1 0,9 25 14 36 19 SE 1023,9 12 0,0
15.12.2018 12:00:00 0,6 -1,5 0,7 29 16 36 19 SE 1024,8 10 0,0
15.12.2018 11:00:00 0,5 -1,4 0,5 29 16 36 19 SE 1025,7 10 0,0
15.12.2018 10:00:00 0,4 -1,6 0,4 25 14 36 19 SE 1026,0 11 0,0
15.12.2018 09:00:00 0,4 -2,0 0,3 25 14 32 18 SE 1025,8 12 0,0
15.12.2018 08:00:00 0,5 -1,8 0,4 22 12 29 16 SE 1025,9 12 0,0
15.12.2018 07:00:00 0,6 -2,0 0,4 22 12 32 18 ESE 1025,9 13 0,0
15.12.2018 06:00:00 0,8 -2,3 0,6 25 14 32 18 ESE 1025,9 14 0,0
15.12.2018 05:00:00 1,0 -2,5 0,8 22 12 29 16 ESE 1026,1 16 0,0
15.12.2018 04:00:00 1,0 -2,5 0,8 18 10 25 14 ESE 1026,7 18 0,0
15.12.2018 03:00:00 1,0 -2,1 0,7 18 10 25 14 ESE 1027,0 15 0,0
15.12.2018 02:00:00 1,1 -1,5 0,9 22 12 25 14 SE 1027,0 14 0,0
15.12.2018 01:00:00 1,0 -1,0 0,8 22 12 29 16 SE 1026,9 13 0,0
15.12.2018 00:00:00 0,9 -0,8 0,6 25 14 32 18 ESE 1026,6 12 0,0
14.12.2018 23:00:00 0,9 -1,0 0,6 22 12 29 16 ESE 1026,5 12 0,0
14.12.2018 22:00:00 1,4 -0,8 1,2 22 12 29 16 ESE 1026,8 16 0,0
14.12.2018 21:00:00 1,8 -0,9 1,6 18 10 25 14 ESE 1026,9 23 0,0
14.12.2018 20:00:00 1,9 -0,9 1,5 11 6 22 12 ESE 1027,0 39 0,0
14.12.2018 19:00:00 2,0 -2,0 1,6 18 10 22 12 ESE 1026,9 49 0,0
14.12.2018 18:00:00 1,4 -1,2 0,7 11 6 22 12 E 1026,6 41 0,0
14.12.2018 17:00:00 2,2 -1,3 1,9 14 8 25 14 ESE 1026,4 45 0,0
14.12.2018 16:00:00 2,4 -1,2 1,7 14 8 22 12 E 1026,1 40 0,0
14.12.2018 15:00:00 2,9 -0,7 2,8 11 6 18 10 ESE 1025,9 45 0,0
14.12.2018 14:00:00 3,0 -0,5 3,4 14 8 22 12 ESE 1025,6 39 0,0
14.12.2018 13:00:00 2,8 -0,2 2,8 18 10 29 16 ESE 1025,7 31 0,0
14.12.2018 12:00:00 2,7 0,0 2,9 25 14 29 16 E 1025,9 26 0,0
14.12.2018 11:00:00 2,6 0,3 2,5 14 8 22 12 E 1026,1 26 0,0
14.12.2018 10:00:00 2,4 0,3 2,0 18 10 25 14 E 1026,1 31 0,0
14.12.2018 09:00:00 1,6 0,5 1,0 11 6 22 12 E 1025,6 17 0,0
14.12.2018 08:00:00 1,0 -0,5 0,0 14 8 22 12 ENE 1025,3 21 0,0
14.12.2018 07:00:00 2,1 0,0 1,7 18 10 32 18 E 1024,8 24 0,0
14.12.2018 06:00:00 2,2 -0,2 1,7 29 16 40 21 E 1024,4 24 0,0
14.12.2018 05:00:00 2,6 -0,1 2,0 25 14 32 18 E 1024,4 30 0,0
14.12.2018 04:00:00 2,6 0,9 2,2 25 14 32 18 E 1024,5 19 0,0
14.12.2018 03:00:00 2,7 1,3 2,4 25 14 32 18 E 1024,7 16 0,0
14.12.2018 02:00:00 2,6 1,2 2,2 25 14 29 16 E 1024,7 16 0,0
14.12.2018 01:00:00 2,6 1,2 2,3 25 14 32 18 E 1024,6 17 0,0
14.12.2018 00:00:00 2,6 1,2 1,4 22 12 29 16 E 1024,6 25 0,0
13.12.2018 23:00:00 1,3 0,3 0,6 14 8 14 8 ENE 1024,7 27 0,0
13.12.2018 22:00:00 0,9 0,1 0,0 11 6 22 12 E 1024,9 33 0,0
13.12.2018 21:00:00 0,5 -0,6 -0,5 18 10 29 16 E 1024,7 24 0,0
13.12.2018 20:00:00 0,6 -0,6 -0,3 18 10 32 18 E 1024,4 28 0,0
13.12.2018 19:00:00 1,4 -0,2 -0,4 18 10 29 16 ENE 1024,1 37 0,0
13.12.2018 18:00:00 1,8 -0,9 1,0 25 14 40 21 E 1023,9 49 0,0
13.12.2018 17:00:00 2,6 -0,8 2,3 29 16 36 19 E 1024,0 50 0,0
13.12.2018 16:00:00 2,3 -0,6 1,6 25 14 40 21 E 1023,9 49 0,0
13.12.2018 15:00:00 2,8 -0,3 2,7 29 16 40 21 E 1023,9 48 0,0
13.12.2018 14:00:00 3,1 0,2 2,9 29 16 36 19 E 1024,1 37 0,0
13.12.2018 13:00:00 3,0 0,5 2,9 29 16 40 21 E 1024,4 42 0,0
13.12.2018 12:00:00 3,0 0,5 3,0 32 18 43 23 E 1024,7 35 0,0
13.12.2018 11:00:00 2,6 0,4 2,5 32 18 43 23 E 1025,1 38 0,0
13.12.2018 10:00:00 2,3 0,2 1,6 29 16 43 23 E 1025,0 31 0,0
13.12.2018 09:00:00 2,1 0,3 1,4 32 18 40 21 E 1024,8 30 0,0
13.12.2018 08:00:00 2,5 0,3 2,2 32 18 43 23 E 1024,5 29 0,0
13.12.2018 07:00:00 3,0 0,8 2,6 29 16 36 19 E 1024,4 30 0,0
13.12.2018 06:00:00 3,2 0,4 2,9 29 16 36 19 E 1024,7 49 0,0
13.12.2018 05:00:00 3,3 0,4 2,9 29 16 40 21 E 1025,0 50 0,0
13.12.2018 04:00:00 3,4 1,2 3,0 29 16 36 19 E 1025,2 35 0,0
13.12.2018 03:00:00 2,7 0,8 2,0 29 16 36 19 E 1025,6 30 0,0
13.12.2018 02:00:00 2,9 1,5 2,1 32 18 40 21 E 1025,7 20 0,0
13.12.2018 01:00:00 3,4 2,4 2,8 32 18 40 21 E 1026,2 11 0,0
13.12.2018 00:00:00 3,8 2,9 3,6 25 14 36 19 E 1026,2 10 0,0
12.12.2018 23:00:00 3,8 2,8 3,6 29 16 32 18 E 1026,5 13 0,0
12.12.2018 22:00:00 3,8 2,6 2,9 22 12 29 16 E 1026,8 24 0,0
12.12.2018 21:00:00 2,3 1,1 1,1 14 8 22 12 E 1027,0 35 0,0
12.12.2018 20:00:00 1,7 0,2 0,8 14 8 22 12 E 1027,0 40 0,0
12.12.2018 19:00:00 3,3 0,6 2,8 18 10 29 16 E 1026,8 50 0,0
12.12.2018 18:00:00 4,1 1,8 3,8 18 10 22 12 ESE 1026,8 49 0,0
12.12.2018 17:00:00 4,1 2,0 3,9 18 10 25 14 E 1026,9 48 0,0
12.12.2018 16:00:00 4,2 0,1 3,6 18 10 29 16 ESE 1026,6 50 0,0
12.12.2018 15:00:00 3,9 1,4 3,5 18 10 29 16 ESE 1026,8 49 0,0
12.12.2018 14:00:00 4,7 2,7 4,9 14 8 18 10 E 1027,1 36 0,0
12.12.2018 13:00:00 4,9 1,9 5,0 14 8 14 8 E 1027,5 41 0,0
12.12.2018 12:00:00 4,8 2,0 5,0 4 2 7 4 E 1027,8 47 0,0
12.12.2018 11:00:00 4,6 2,9 4,5 4 2 7 4 ESE 1028,0 38 0,0
12.12.2018 10:00:00 4,2 2,3 3,9 4 2 22 12 SSE 1027,6 40 0,0
12.12.2018 09:00:00 4,1 2,1 3,6 14 8 25 14 SE 1027,3 45 0,0
12.12.2018 08:00:00 3,8 2,4 3,2 18 10 25 14 SE 1026,8 32 0,0
12.12.2018 07:00:00 3,5 2,7 2,7 14 8 22 12 E 1026,5 25 0,0
12.12.2018 06:00:00 1,8 1,7 -1,9 7 4 14 8 ESE 1026,2 21 0,0
12.12.2018 05:00:00 0,9 0,8 -0,8 11 6 11 6 ESE 1025,6 18 0,0
12.12.2018 04:00:00 0,8 0,6 0,2 4 2 4 2 E 1025,8 20 0,0
12.12.2018 03:00:00 0,6 0,3 -0,7 4 2 7 4 SE 1025,6 17 0,0
12.12.2018 02:00:00 1,7 1,5 -2,0 7 4 7 4 ENE 1025,2 18 0,0
12.12.2018 01:00:00 0,1 -0,4 -1,9 4 2 7 4 NE 1025,1 19 0,0
12.12.2018 00:00:00 -0,9 -0,9 -3,3 0 0 4 2 N 1024,9 16 0,0
11.12.2018 23:00:00 1,0 0,0 -2,6 4 2 4 2 ENE 1025,0 12 0,0
11.12.2018 22:00:00 2,5 1,3 -0,7 7 4 11 6 NE 1024,7 12 0,0
11.12.2018 21:00:00 4,1 1,5 -1,0 7 4 14 8 N 1024,6 16 0,0
11.12.2018 20:00:00 4,0 1,0 0,2 11 6 14 8 N 1024,4 15 0,0
11.12.2018 19:00:00 4,7 1,0 1,5 11 6 18 10 N 1024,3 20 0,0
11.12.2018 18:00:00 4,6 0,8 1,3 11 6 14 8 N 1023,9 16 0,0
11.12.2018 17:00:00 5,7 1,8 4,2 11 6 25 14 NNW 1023,7 20 0,0
11.12.2018 16:00:00 7,3 2,0 6,5 14 8 25 14 N 1023,6 21 0,0
11.12.2018 15:00:00 7,1 1,6 6,3 11 6 29 16 N 1023,4 23 0,0
11.12.2018 14:00:00 7,2 1,8 6,6 18 10 29 16 NNW 1023,4 22 0,0
11.12.2018 13:00:00 7,5 0,8 6,6 18 10 29 16 NNW 1023,5 22 0,0
11.12.2018 12:00:00 7,9 0,9 7,3 18 10 32 18 N 1023,3 24 0,0
11.12.2018 11:00:00 7,4 1,1 6,8 22 12 40 21 N 1023,3 21 0,0
11.12.2018 10:00:00 6,8 2,9 6,1 18 10 36 19 N 1023,1 17 0,0
11.12.2018 09:00:00 6,8 2,1 5,5 22 12 36 19 NNW 1022,6 20 0,0
11.12.2018 08:00:00 6,6 2,0 5,2 22 12 36 19 N 1022,3 19 0,0
11.12.2018 07:00:00 6,4 2,5 5,1 22 12 43 23 NNW 1022,1 19 0,0
11.12.2018 06:00:00 6,2 3,2 4,6 18 10 47 25 N 1022,1 13 0,0

tt = Température de l'air
td = dewpoint
tt 5cm = Température de l'air 5cm
ff = Vitesse du vent
fx = gusts
dd = Direction du vent
ppp = reduced air pressure
vv = visibility
rr = Quantités de précipitations

stations d'obs. à proximité